TimeMST,TemperatureF,Dew PointF,Humidity,Sea Level PressureIn,VisibilityMPH,Wind Direction,Wind SpeedMPH,Gust SpeedMPH,PrecipitationIn,Events,Conditions,WindDirDegrees,DateUTC
12:15 AM,32.0,24.8,75,29.82,10.0,WNW,17.3,-,N/A,,Clear,300,2013-02-05 07:15:00
12:35 AM,30.2,23.0,75,29.82,10.0,WNW,15.0,-,N/A,,Mostly Cloudy,290,2013-02-05 07:35:00
1:15 AM,30.2,23.0,75,29.84,10.0,WNW,16.1,-,N/A,,Clear,290,2013-02-05 08:15:00
1:35 AM,30.2,23.0,75,29.85,10.0,WNW,17.3,-,N/A,,Clear,290,2013-02-05 08:35:00
1:55 AM,30.2,23.0,75,29.86,10.0,WNW,18.4,-,N/A,,Clear,290,2013-02-05 08:55:00
2:15 AM,30.2,23.0,75,29.86,10.0,WNW,18.4,24.2,N/A,,Clear,290,2013-02-05 09:15:00
2:35 AM,28.4,21.2,74,29.87,10.0,WNW,16.1,21.9,N/A,,Clear,290,2013-02-05 09:35:00
2:55 AM,28.4,21.2,74,29.87,10.0,WNW,18.4,-,N/A,,Clear,290,2013-02-05 09:55:00
3:15 AM,28.4,21.2,74,29.87,10.0,WNW,16.1,-,N/A,,Clear,290,2013-02-05 10:15:00
3:35 AM,28.4,21.2,74,29.88,10.0,WNW,16.1,-,N/A,,Clear,290,2013-02-05 10:35:00
3:55 AM,28.4,21.2,74,29.89,10.0,WNW,15.0,-,N/A,,Clear,290,2013-02-05 10:55:00
4:35 AM,26.6,21.2,80,29.91,10.0,WNW,15.0,-,N/A,,Clear,290,2013-02-05 11:35:00
4:55 AM,26.6,21.2,80,29.93,10.0,WNW,13.8,-,N/A,,Clear,290,2013-02-05 11:55:00
5:15 AM,26.6,21.2,80,29.94,10.0,WNW,11.5,-,N/A,,Clear,290,2013-02-05 12:15:00
5:35 AM,26.6,19.4,74,29.94,10.0,NW,9.2,-,N/A,,Clear,310,2013-02-05 12:35:00
5:55 AM,24.8,19.4,80,29.93,10.0,NW,9.2,-,N/A,,Clear,310,2013-02-05 12:55:00
6:15 AM,24.8,21.2,86,29.95,10.0,WNW,8.1,-,N/A,,Mostly Cloudy,300,2013-02-05 13:15:00
6:35 AM,24.8,21.2,86,29.96,10.0,WNW,10.4,-,N/A,,Mostly Cloudy,290,2013-02-05 13:35:00
6:55 AM,24.8,19.4,80,29.96,10.0,WNW,10.4,-,N/A,,Partly Cloudy,300,2013-02-05 13:55:00
7:15 AM,24.8,19.4,80,29.96,10.0,WNW,5.8,-,N/A,,Clear,290,2013-02-05 14:15:00
7:35 AM,23.0,17.6,80,29.97,10.0,South,3.5,-,N/A,,Scattered Clouds,190,2013-02-05 14:35:00
7:55 AM,21.2,17.6,86,29.97,10.0,West,6.9,-,N/A,,Mostly Cloudy,280,2013-02-05 14:55:00
8:15 AM,24.8,19.4,80,29.96,10.0,WNW,8.1,-,N/A,,Clear,300,2013-02-05 15:15:00
8:35 AM,24.8,19.4,80,29.97,10.0,West,8.1,-,N/A,,Clear,280,2013-02-05 15:35:00
8:55 AM,26.6,21.2,80,29.97,10.0,West,9.2,-,N/A,,Clear,280,2013-02-05 15:55:00
9:15 AM,28.4,21.2,74,29.97,10.0,WNW,8.1,-,N/A,,Partly Cloudy,290,2013-02-05 16:15:00
9:35 AM,28.4,21.2,74,29.97,10.0,WNW,5.8,-,N/A,,Scattered Clouds,300,2013-02-05 16:35:00
9:55 AM,28.4,21.2,74,29.97,10.0,WNW,6.9,-,N/A,,Mostly Cloudy,300,2013-02-05 16:55:00
10:15 AM,28.4,21.2,74,29.98,10.0,West,5.8,-,N/A,,Overcast,280,2013-02-05 17:15:00
10:35 AM,30.2,23.0,75,29.98,10.0,West,4.6,-,N/A,,Scattered Clouds,280,2013-02-05 17:35:00
10:55 AM,30.2,23.0,75,29.98,10.0,WSW,3.5,-,N/A,,Clear,250,2013-02-05 17:55:00
11:15 AM,32.0,23.0,69,29.97,10.0,SSE,6.9,-,N/A,,Clear,160,2013-02-05 18:15:00
11:35 AM,32.0,21.2,64,29.97,10.0,SSW,8.1,-,N/A,,Clear,200,2013-02-05 18:35:00
11:55 AM,32.0,21.2,64,29.96,10.0,SSW,6.9,-,N/A,,Clear,200,2013-02-05 18:55:00
12:15 PM,32.0,23.0,69,29.95,10.0,South,8.1,-,N/A,,Clear,190,2013-02-05 19:15:00
12:35 PM,33.8,24.8,70,29.94,10.0,SSE,8.1,-,N/A,,Clear,160,2013-02-05 19:35:00
12:55 PM,33.8,23.0,65,29.93,10.0,South,9.2,-,N/A,,Clear,170,2013-02-05 19:55:00
1:15 PM,33.8,24.8,70,29.93,10.0,SSE,6.9,-,N/A,,Clear,160,2013-02-05 20:15:00
1:35 PM,33.8,24.8,70,29.91,10.0,SSW,8.1,-,N/A,,Clear,200,2013-02-05 20:35:00
1:55 PM,33.8,24.8,70,29.90,10.0,SSW,6.9,-,N/A,,Clear,200,2013-02-05 20:55:00
2:15 PM,35.6,24.8,65,29.89,10.0,South,8.1,-,N/A,,Mostly Cloudy,170,2013-02-05 21:15:00
2:35 PM,35.6,26.6,70,29.89,10.0,SSE,8.1,-,N/A,,Mostly Cloudy,160,2013-02-05 21:35:00
2:55 PM,35.6,26.6,70,29.88,10.0,SSE,5.8,-,N/A,,Overcast,160,2013-02-05 21:55:00
3:15 PM,35.6,28.4,75,29.87,10.0,SSE,6.9,-,N/A,,Overcast,160,2013-02-05 22:15:00
3:35 PM,35.6,28.4,75,29.86,10.0,SSE,8.1,-,N/A,,Overcast,160,2013-02-05 22:35:00
3:55 PM,35.6,28.4,75,29.85,10.0,SE,6.9,-,N/A,,Overcast,140,2013-02-05 22:55:00
4:15 PM,33.8,28.4,81,29.84,10.0,SE,8.1,-,N/A,,Overcast,140,2013-02-05 23:15:00
4:35 PM,33.8,28.4,81,29.83,10.0,SSE,6.9,-,N/A,,Overcast,160,2013-02-05 23:35:00
4:55 PM,33.8,28.4,81,29.83,10.0,SSE,6.9,-,N/A,,Overcast,160,2013-02-05 23:55:00
5:15 PM,33.8,26.6,75,29.82,10.0,SSE,8.1,-,N/A,,Overcast,160,2013-02-06 00:15:00
5:55 PM,32.0,26.6,80,29.81,10.0,SSE,6.9,-,N/A,,Clear,160,2013-02-06 00:55:00
6:15 PM,32.0,28.4,87,29.80,10.0,SSE,5.8,-,N/A,,Clear,160,2013-02-06 01:15:00
6:35 PM,30.2,26.6,86,29.80,10.0,South,6.9,-,N/A,,Clear,180,2013-02-06 01:35:00
6:55 PM,30.2,26.6,86,29.79,10.0,SSE,4.6,-,N/A,,Clear,160,2013-02-06 01:55:00
7:15 PM,30.2,26.6,86,29.79,10.0,SSE,8.1,-,N/A,,Clear,160,2013-02-06 02:15:00
8:15 PM,30.2,26.6,86,29.76,10.0,SSE,6.9,-,N/A,,Mostly Cloudy,150,2013-02-06 03:15:00
8:35 PM,30.2,26.6,86,29.76,10.0,SSE,5.8,-,N/A,,Overcast,150,2013-02-06 03:35:00
9:15 PM,32.0,26.6,80,29.74,10.0,SSE,5.8,-,N/A,,Overcast,150,2013-02-06 04:15:00
9:35 PM,33.8,26.6,75,29.73,10.0,South,4.6,-,N/A,,Overcast,170,2013-02-06 04:35:00
9:55 PM,32.0,28.4,87,29.73,10.0,South,6.9,-,N/A,,Overcast,170,2013-02-06 04:55:00
10:15 PM,32.0,28.4,87,29.72,10.0,SSE,5.8,-,N/A,,Overcast,150,2013-02-06 05:15:00
10:55 PM,32.0,28.4,87,29.71,10.0,SSE,4.6,-,N/A,,Overcast,160,2013-02-06 05:55:00
11:15 PM,30.2,28.4,93,29.70,10.0,South,3.5,-,N/A,,Overcast,190,2013-02-06 06:15:00
11:35 PM,30.2,26.6,86,29.70,10.0,Calm,Calm,-,N/A,,Overcast,0,2013-02-06 06:35:00